Theta_e
325 321 316 320 321 322 325 323 324 324 334 332 331 330 334 333 333 334 332 333 328 331 326 319 317 315 313 311 312 313 313 312 312 312 312 312 311 311 311 310 311 312 314 317 319 318 317 316 318
322 314 320 320 319 325 319 323 325 325 335 333 333 332 334 334 332 334 332 335 332 329 326 319 317 315 313 311 312 314 314 313 313 313 313 313 313 312 312 312 312 313 316 319 318 320 325 329 330
318 320 319 323 322 322 320 324 326 331 334 335 333 331 333 336 335 334 332 334 336 328 329 321 318 316 314 313 311 313 315 314 314 314 314 314 314 314 314 314 315 318 325 329 328 329 331 333 335
323 320 318 323 327 325 322 327 328 327 329 333 332 333 330 334 335 333 330 334 337 330 329 322 318 316 315 314 312 312 315 315 315 315 315 315 315 315 316 317 318 321 330 332 333 334 334 337 337
321 317 320 322 323 325 326 326 326 326 328 331 331 332 330 331 335 334 331 334 336 334 330 322 319 318 316 315 313 312 314 315 316 316 316 316 316 316 317 318 320 327 333 335 337 336 337 338 339
320 318 322 320 321 323 323 324 326 326 327 332 335 331 330 330 335 336 334 335 335 335 333 326 320 319 317 316 314 313 313 315 316 316 316 316 317 317 318 319 322 328 335 336 336 336 334 331 331
320 319 322 324 327 327 326 324 326 327 328 331 331 330 329 329 335 337 337 337 338 336 334 329 323 320 317 316 314 313 312 314 316 316 317 317 317 318 319 319 322 327 332 334 335 337 336 332 331
316 317 322 322 324 324 325 326 326 326 328 327 328 329 330 328 333 338 339 339 340 338 333 329 326 325 322 317 316 314 313 313 314 316 317 318 318 318 319 320 321 325 329 332 334 334 332 331 330
315 318 319 322 324 323 324 323 326 325 328 325 327 328 328 328 332 335 340 340 340 339 337 332 329 327 325 323 318 316 314 313 313 315 317 318 319 319 320 321 322 323 328 330 332 332 331 330 329
320 318 318 318 321 323 323 321 321 324 323 325 325 327 327 329 330 329 331 335 338 339 338 336 334 330 330 328 323 324 318 315 313 315 317 319 320 320 320 321 322 322 325 330 332 332 332 330 328
328 326 318 317 319 321 322 321 321 322 323 323 324 325 323 324 325 326 328 332 336 336 337 338 337 333 330 332 329 326 323 320 319 316 318 321 322 322 324 324 324 323 324 331 334 334 333 331 329
331 329 327 325 324 324 322 323 323 323 322 322 322 322 322 323 322 322 323 325 329 331 332 332 336 338 336 333 332 330 328 324 322 321 320 322 327 325 326 325 324 324 324 331 334 335 334 333 330
329 328 329 330 330 328 328 331 329 329 328 325 325 325 324 323 322 323 324 325 325 325 326 328 328 330 335 338 336 333 330 328 325 327 323 325 327 325 325 325 325 325 325 331 334 335 335 334 332
314 317 323 324 324 323 325 325 324 325 325 326 325 325 324 323 322 322 322 322 323 325 326 326 325 326 332 338 338 337 334 332 331 329 327 329 328 327 324 323 325 325 326 332 334 334 334 334 332
311 313 313 314 316 320 322 324 325 323 323 323 323 323 323 323 320 319 322 323 324 324 324 324 325 325 329 333 338 338 336 335 333 332 331 330 331 328 323 321 323 325 324 333 334 334 334 333 332
313 311 315 316 314 315 319 323 323 322 323 323 323 322 322 322 319 321 322 323 324 324 323 324 323 324 326 330 336 339 338 337 336 335 334 333 332 329 326 323 323 323 325 335 333 333 333 332 331
312 317 314 315 315 316 317 321 320 320 320 321 320 320 320 320 319 320 321 322 322 323 324 324 324 323 324 328 335 338 339 339 338 337 336 335 334 331 329 327 324 325 329 335 334 334 333 332 332
313 316 317 318 316 316 317 318 318 319 320 320 320 319 319 319 318 319 321 322 323 324 324 323 323 323 324 329 337 339 339 339 339 339 338 338 336 335 333 331 327 327 336 334 334 333 333 332 332
311 312 314 316 316 317 317 318 318 317 317 318 318 319 319 319 320 320 320 322 323 322 322 322 322 323 326 336 340 340 339 339 340 339 339 339 338 335 334 332 330 330 335 334 334 333 332 332 331
309 310 310 312 312 313 313 313 313 313 314 316 317 318 317 317 316 317 318 320 320 321 321 322 323 322 328 336 340 340 340 337 340 341 341 340 338 337 337 336 334 336 334 334 333 333 331 330 329
308 309 310 312 312 312 312 314 315 314 312 313 313 314 315 317 318 318 317 317 319 319 321 321 323 323 328 336 339 340 340 339 339 340 340 340 339 339 338 338 338 336 334 334 333 331 331 329 327
306 309 310 312 312 313 311 315 314 314 314 313 312 312 313 313 314 315 314 315 317 319 320 322 326 326 329 337 340 340 339 337 339 340 340 340 340 339 339 339 334 332 334 334 332 330 329 328 326
306 306 307 311 311 311 312 311 313 311 311 310 311 312 312 312 312 312 313 314 316 317 320 329 334 335 337 340 341 340 339 338 339 340 340 337 338 334 337 337 332 334 334 331 330 329 329 328 327
307 308 307 307 309 311 311 311 312 311 311 311 310 311 311 310 310 310 311 313 316 323 332 339 340 341 341 342 341 340 338 336 336 335 334 334 334 334 333 334 335 334 331 330 328 329 329 329 328
304 303 307 309 309 309 310 311 312 310 311 311 313 312 311 311 311 310 311 322 328 334 337 341 341 340 341 341 339 338 337 335 335 334 333 332 334 334 334 333 332 331 330 328 328 328 329 329 328
303 302 306 314 314 310 309 314 312 311 312 311 311 310 310 310 309 310 314 327 334 335 338 340 340 339 340 338 337 336 336 335 334 333 332 333 333 333 333 332 331 331 330 329 329 329 329 327 328
307 304 305 305 306 306 309 310 311 312 312 312 311 311 311 310 310 327 332 334 335 336 337 338 338 338 337 337 337 336 335 333 332 332 333 333 333 332 330 329 329 329 329 330 330 330 329 327 327
307 305 304 302 307 311 310 311 312 312 311 313 313 312 311 311 331 334 334 334 334 335 336 337 338 336 336 335 334 333 332 333 333 332 332 332 331 331 328 329 330 331 331 330 330 330 329 327 327
306 308 307 303 304 310 313 312 310 312 312 311 313 321 321 320 332 334 334 334 332 333 333 332 333 333 332 333 332 332 332 332 332 331 330 330 328 328 329 330 330 330 330 329 329 329 328 327 327
307 307 309 310 310 306 308 308 308 310 311 312 315 322 331 331 333 334 333 334 332 330 330 331 331 332 332 332 332 332 332 331 331 330 329 328 328 329 329 330 330 330 330 329 328 329 327 326 325
Wind_Speed
8 4 4 1 2 4 4 7 3 5 2 0 1 5 10 2 8 5 3 24 17 27 28 34 31 29 27 27 26 24 24 23 22 20 18 18 16 15 14 12 11 9 8 7 5 4 3 3 1
8 7 2 1 4 3 5 5 6 6 3 7 3 1 3 7 3 2 7 26 17 29 30 36 34 32 29 28 27 26 24 23 22 21 19 18 17 16 15 14 13 11 10 8 7 5 3 1 1
9 5 2 3 4 5 5 5 5 2 4 2 4 4 4 3 2 3 5 28 19 27 30 37 36 33 30 29 29 28 27 25 23 21 19 18 17 15 14 14 13 12 11 10 8 6 4 2 2
3 3 3 2 7 6 6 4 4 10 5 6 2 6 2 4 5 9 18 27 23 29 31 37 37 34 32 32 32 31 29 26 24 21 19 18 16 14 13 12 12 12 12 10 8 6 4 4 4
2 2 2 3 5 6 4 6 3 6 5 7 6 5 4 3 7 16 24 29 24 30 33 37 37 36 36 35 35 33 31 29 26 23 21 19 17 16 15 13 11 11 11 10 9 6 6 6 7
2 3 1 7 6 5 6 7 3 4 5 4 4 5 4 4 8 18 26 28 24 28 33 38 39 39 37 36 35 34 33 31 28 26 23 21 19 17 16 14 11 11 11 10 9 8 6 7 8
4 4 5 3 3 5 5 5 4 5 4 3 2 7 3 4 15 16 23 25 23 25 31 37 39 40 37 35 36 36 35 33 30 28 26 24 21 19 16 14 12 12 11 10 10 9 8 7 8
4 4 3 5 5 7 5 3 4 5 2 2 6 2 3 4 11 13 17 21 22 23 28 33 36 39 39 40 39 38 36 34 33 31 29 26 23 21 19 16 14 12 11 11 10 9 7 6 8
4 2 5 7 8 5 2 2 2 5 1 2 1 1 5 9 12 11 13 15 17 21 26 30 34 38 41 41 41 40 38 36 35 33 32 30 29 26 22 20 17 14 13 12 11 10 8 6 6
5 5 10 6 8 4 4 3 1 4 3 3 0 3 11 5 7 8 9 15 21 25 31 32 33 38 40 42 42 40 40 40 40 38 36 34 32 29 26 23 19 17 14 14 13 12 9 7 6
7 10 13 6 7 3 7 8 2 4 7 6 6 5 7 12 5 6 12 24 32 32 27 33 35 37 40 42 43 44 44 43 42 41 39 37 35 30 28 25 22 20 17 17 16 15 13 11 9
5 12 13 5 5 3 7 9 12 8 9 7 9 8 5 10 8 8 15 23 32 30 33 33 35 40 41 43 44 44 45 46 47 46 43 40 36 32 32 28 25 22 19 19 19 18 15 14 12
14 10 8 16 10 8 5 16 12 20 16 17 20 18 14 8 9 18 22 21 21 22 25 28 33 39 43 45 44 46 48 48 48 46 45 43 40 37 33 30 26 25 21 21 20 18 17 16 15
2 8 11 7 7 4 6 14 5 4 11 15 12 18 16 12 9 15 19 22 20 23 25 29 29 35 39 42 46 50 43 43 43 43 46 43 41 38 33 33 30 27 23 21 19 18 18 17 16
4 6 4 7 5 10 7 22 30 18 15 19 19 18 17 18 13 12 26 24 27 28 29 30 29 26 36 40 45 44 45 43 42 42 40 39 39 38 33 34 32 27 26 22 20 19 19 18 17
4 5 13 13 8 6 11 29 25 8 17 21 19 15 15 17 11 20 25 26 28 32 36 41 36 26 28 37 41 42 40 41 41 40 38 35 35 35 33 36 34 30 27 21 18 19 18 17 17
4 16 9 6 9 11 12 31 11 9 10 17 12 11 11 12 10 19 25 28 30 39 41 41 38 31 29 33 37 37 37 37 36 33 33 31 30 32 32 37 30 29 21 19 18 18 18 17 18
10 6 2 5 5 14 11 30 13 8 9 16 15 14 11 13 11 16 29 33 40 39 41 42 36 30 28 30 29 29 30 29 30 29 29 25 29 30 33 30 28 22 21 18 17 17 18 19 19
5 3 1 1 2 2 16 21 18 12 13 15 18 18 18 18 18 23 27 32 35 38 38 38 34 30 24 25 25 25 25 25 24 24 22 24 26 26 24 24 22 22 22 17 15 17 17 18 18
10 2 4 5 9 4 6 12 13 10 12 14 17 17 14 12 10 11 19 31 33 32 37 33 30 25 24 27 26 14 20 16 21 20 20 22 24 23 21 20 23 23 20 16 16 17 13 11 10
4 5 3 6 9 10 9 16 15 12 11 15 15 15 14 15 16 15 12 19 29 31 36 30 26 20 22 26 23 14 15 10 17 20 21 23 22 21 22 22 22 21 19 18 18 16 15 9 7
11 4 2 3 3 7 3 10 16 15 20 14 12 15 15 11 13 13 10 12 24 35 31 26 18 17 22 25 24 25 18 13 16 26 24 21 20 21 19 22 18 19 17 17 13 12 13 11 10
6 11 8 4 4 4 6 4 14 4 13 9 14 18 19 21 15 14 12 14 28 28 24 15 14 17 21 24 23 24 21 19 21 23 23 21 19 16 18 20 16 16 14 12 11 10 11 11 10
4 5 4 3 3 6 7 8 22 10 18 14 8 13 11 9 10 11 11 15 18 12 9 10 16 19 23 26 24 24 26 25 26 23 23 20 18 18 15 14 14 13 12 10 9 11 10 10 11
4 5 1 1 3 9 14 9 21 3 7 6 8 10 9 9 9 9 8 7 4 5 10 15 19 22 23 23 26 26 27 28 28 24 22 20 19 17 15 14 14 12 10 9 9 9 10 10 13
6 8 4 6 5 4 7 12 8 13 15 12 9 11 10 10 9 9 8 5 7 10 15 20 23 24 21 23 24 25 24 24 23 23 21 19 18 15 14 12 10 9 10 9 9 11 11 11 12
5 5 9 2 3 1 5 7 9 12 19 8 7 8 11 10 8 4 2 6 10 13 18 25 26 25 24 25 25 23 21 20 19 18 17 17 14 12 10 9 8 7 7 8 10 11 13 13 12
5 4 4 1 4 5 5 6 7 7 9 5 9 10 12 10 2 4 7 9 11 18 22 26 26 26 25 25 24 22 20 20 20 19 17 13 12 10 11 9 7 6 4 4 5 7 10 13 12
1 1 2 3 4 3 3 5 6 4 5 7 9 9 11 11 7 9 9 9 14 19 22 24 28 28 27 26 26 24 22 20 18 15 13 13 13 13 10 8 6 4 2 2 5 6 7 8 7
2 3 2 4 6 7 3 6 5 5 4 6 13 15 8 3 7 10 11 12 12 15 19 23 26 29 29 27 26 23 20 17 15 14 13 14 14 11 10 7 4 2 2 4 4 5 9 9 6
Wind_Direction
201 193 161 323 80 74 252 258 238 296 249 75 89 155 194 189 161 207 226 177 182 184 184 184 186 186 184 182 179 178 176 174 172 169 167 166 167 168 166 166 168 169 170 170 163 153 145 129 111
154 147 123 74 115 137 255 248 230 224 296 343 323 115 155 224 216 273 144 177 179 183 184 186 187 190 187 186 185 184 184 180 177 174 172 171 172 172 171 169 168 170 171 173 170 162 158 118 27
155 121 98 162 174 193 221 222 223 220 248 213 305 208 162 228 227 212 186 175 177 184 194 191 190 193 190 190 191 191 190 187 184 180 178 177 177 176 173 173 170 171 172 174 178 181 189 199 260
189 81 12 153 227 253 206 242 351 337 338 161 175 275 265 204 163 185 170 180 186 188 196 193 193 194 194 196 196 196 196 192 191 187 186 185 181 180 182 180 176 176 177 182 188 199 216 230 251
150 39 181 254 259 264 233 264 275 268 250 228 141 259 278 339 169 174 179 186 192 193 196 196 198 200 200 200 201 201 201 198 197 194 192 192 189 188 189 187 185 187 188 190 200 208 231 246 257
88 103 149 230 241 265 269 243 227 258 246 267 153 162 253 270 189 187 190 190 194 199 200 201 203 206 204 206 206 206 207 205 204 199 197 197 195 195 193 192 193 195 200 201 207 216 234 248 255
159 122 225 215 225 280 251 231 212 241 291 262 96 152 230 258 202 200 194 196 200 207 205 206 208 210 211 211 214 213 213 212 210 207 203 203 200 199 199 200 200 200 207 212 217 218 238 253 262
147 131 224 228 183 262 233 267 243 201 166 88 152 15 303 278 192 188 195 206 210 214 215 214 213 215 215 215 218 218 219 218 217 215 210 207 205 203 203 204 207 210 213 217 223 223 232 251 268
137 141 223 220 170 237 231 284 251 291 88 16 90 100 253 308 185 193 203 215 227 227 225 224 222 221 222 221 222 222 223 222 223 222 218 213 209 205 205 206 208 214 220 221 223 224 228 250 265
173 189 219 190 212 227 242 253 262 287 28 215 344 286 338 11 194 186 207 231 232 238 236 232 231 227 226 226 226 225 225 224 224 223 221 218 214 209 208 209 210 216 223 224 224 226 229 241 255
192 220 227 215 209 234 273 292 208 344 313 225 269 174 349 319 250 223 243 236 232 238 246 242 237 235 232 231 230 228 228 226 227 226 223 221 218 212 212 210 211 217 225 228 227 230 230 236 245
226 226 228 238 208 247 252 297 291 264 240 283 272 278 215 226 260 245 246 250 249 243 256 254 250 244 240 235 234 231 228 228 229 228 225 223 221 214 215 214 215 221 227 233 235 237 238 238 244
231 215 211 242 247 244 265 258 262 280 288 295 296 291 276 279 252 256 257 264 255 244 252 252 254 251 245 236 234 234 233 230 230 228 228 224 222 218 218 219 220 227 231 236 238 239 242 243 242
159 217 234 242 238 236 250 269 235 235 260 261 272 278 289 278 250 273 273 261 253 259 263 277 264 253 242 240 234 235 229 230 231 231 230 226 224 223 220 224 224 228 234 237 238 245 248 245 245
270 284 280 226 230 246 218 268 253 247 252 260 261 258 262 264 251 239 256 264 275 279 284 287 287 260 243 242 241 232 231 231 231 231 231 227 225 225 225 228 227 228 235 237 242 243 244 245 245
207 162 242 236 184 247 160 258 247 225 231 248 245 247 252 258 241 253 267 272 283 290 294 303 296 277 257 242 239 232 229 233 231 231 232 227 225 227 227 228 228 230 235 229 235 241 237 241 246
249 237 214 247 215 200 191 253 251 222 241 258 266 261 255 257 263 261 269 277 290 300 302 298 294 284 267 242 236 233 231 229 231 230 229 227 229 226 228 229 227 231 234 226 237 233 235 242 250
222 231 207 204 198 189 205 246 256 271 242 259 259 262 262 264 254 269 284 289 296 294 295 292 285 277 259 238 230 226 226 226 229 230 229 232 226 223 219 223 223 225 221 226 225 231 238 243 253
42 71 56 322 263 282 222 249 253 250 259 257 264 262 264 272 278 280 279 287 284 290 290 291 287 276 242 212 196 204 204 211 215 225 229 229 222 218 213 210 212 212 216 220 235 241 240 243 254
271 264 256 266 260 214 275 277 280 264 258 257 257 260 257 259 270 266 265 271 275 281 289 288 287 271 232 211 201 199 193 201 214 219 220 220 214 210 199 199 205 204 210 223 231 231 239 252 253
203 218 209 226 293 283 301 283 272 262 234 248 253 258 254 249 256 258 260 261 276 281 283 293 289 253 216 208 197 172 164 172 192 206 210 209 207 199 199 200 202 204 214 229 232 240 239 233 232
242 178 247 324 166 258 21 289 271 271 264 249 251 252 260 245 240 254 249 263 266 273 284 293 265 215 207 206 190 181 169 162 194 194 195 193 193 195 198 198 200 208 219 233 236 245 244 234 219
244 200 226 222 253 268 258 310 281 241 266 270 252 255 252 252 248 247 243 247 262 270 279 266 217 186 182 185 185 177 175 177 177 180 174 167 184 193 200 206 214 214 231 227 241 236 228 227 215
204 180 167 163 150 253 207 194 279 251 248 255 260 252 255 253 254 250 254 259 266 270 231 193 177 162 167 173 173 172 168 160 158 161 164 174 191 198 204 208 214 214 217 231 232 224 228 226 226
161 103 145 90 175 231 181 184 236 260 306 242 278 283 265 258 268 264 260 254 241 198 169 165 161 149 162 162 171 167 163 160 161 167 167 168 170 178 184 192 196 210 221 218 223 225 227 227 228
184 163 178 177 183 220 199 226 248 234 255 277 281 263 282 275 253 260 266 201 180 174 147 145 145 144 151 159 160 157 153 157 162 166 168 168 168 173 182 197 207 211 213 220 230 233 231 230 230
198 167 212 22 281 199 212 279 288 283 286 290 289 303 291 291 297 285 162 158 152 133 133 141 140 139 148 148 144 148 150 151 151 154 156 154 158 172 180 182 181 192 211 232 245 244 241 237 241
180 184 107 330 206 247 254 258 233 318 286 355 324 302 298 282 160 164 157 144 122 130 135 140 139 142 143 141 140 141 143 144 145 149 152 154 161 167 161 162 174 186 212 243 257 253 241 234 250
153 293 201 174 184 211 304 266 220 248 70 334 304 319 298 295 170 158 146 124 119 126 129 130 135 138 139 139 137 136 138 142 147 151 154 154 158 151 153 159 170 187 206 272 280 264 243 235 219
338 257 230 205 252 252 130 279 330 112 63 8 348 330 331 35 151 149 135 125 115 117 123 129 137 139 141 141 139 138 140 144 145 148 151 154 151 145 149 148 151 171 262 309 293 272 226 189 213